Overview Statistics Trail Chart Weather Telemetry Raw packets
 

This is the latest recevied weather packets stored in our database for station/object NL3D. If no packets are shown the sender has not sent any weather packets the latest 10 day(s).

<< 38 39 40 41 42 43 44 >>
Time Temp. Humidity Pressure Rain* Wind** Luminosity Snow
1777441546 2.22° C 91% 1018.8 hPa 0 mm - 5 W/m² -
1777441242 2.22° C 91% 1019 hPa 0 mm - 7 W/m² -
1777440937 2.22° C 91% 1018.8 hPa 0 mm - 8 W/m² -
1777440633 2.78° C 91% 1019 hPa 0 mm - 10 W/m² -
1777440329 2.78° C 90% 1018.9 hPa 0 mm - 12 W/m² -
1777440026 2.78° C 90% 1018.8 hPa 0 mm - 15 W/m² -
1777439721 2.78° C 90% 1018.9 hPa 0 mm - 16 W/m² -
1777439417 2.78° C 89% 1018.8 hPa 0 mm - 19 W/m² -
1777439113 2.78° C 89% 1018.8 hPa 0 mm - 23 W/m² -
1777438810 3.33° C 89% 1018.8 hPa 0 mm - 25 W/m² -
1777438507 3.33° C 88% 1018.9 hPa 0 mm - 28 W/m² -
1777438203 3.33° C 88% 1018.8 hPa 0 mm - 26 W/m² -
1777437898 3.33° C 88% 1018.9 hPa 0 mm - 28 W/m² -
1777437595 3.33° C 88% 1018.5 hPa 0 mm - 30 W/m² -
1777437292 3.33° C 88% 1018.7 hPa 0 mm - 36 W/m² -
1777436988 3.33° C 88% 1018.7 hPa 0 mm - 41 W/m² -
1777436685 3.33° C 88% 1018.4 hPa 0 mm - 40 W/m² -
1777436381 3.33° C 88% 1018.5 hPa 0 mm - 41 W/m² -
1777436077 3.33° C 88% 1018.4 hPa 0 mm - 46 W/m² -
1777435774 3.33° C 88% 1018.5 hPa 0 mm - 50 W/m² -
1777435470 3.33° C 88% 1018.4 hPa 0 mm - 46 W/m² -
1777435166 3.33° C 89% 1018.2 hPa 0 mm - 49 W/m² -
1777434861 3.33° C 89% 1018.2 hPa 0 mm - 64 W/m² -
1777434560 3.33° C 89% 1018.2 hPa 0 mm - 57 W/m² -
1777434257 3.33° C 89% 1018.2 hPa 0 mm - 69 W/m² -

* Rain latest hour (hover to see other rain measurements)
** Current wind speed in m/s (hover to see current wind gust speed)